owner,sensor,date,latitude,longitude,vertical_datum,direction_of_sea_water_velocity,sea_water_speed,upward_sea_water_velocity,qcFlag 
TABS,ioos:station:TABS:H:1,1997-07-01T00:00:00Z,27.8674,-96.5433,2.0,227.7259889,22.15044243,-99999.0,'11111222,11111222,99999999' 
TABS,ioos:station:TABS:H:1,1997-07-01T00:30:00Z,27.8674,-96.5433,2.0,232.1123597,20.38721413,-99999.0,'11111222,11111222,99999999' 
TABS,ioos:station:TABS:H:1,1997-07-01T01:00:00Z,27.8674,-96.5433,2.0,243.4447094,25.32123417,-99999.0,'11111222,11111222,99999999' 
TABS,ioos:station:TABS:H:1,1997-07-01T01:30:00Z,27.8674,-96.5433,2.0,254.0572438,26.03120051,-99999.0,'11111222,11111222,99999999' 
TABS,ioos:station:TABS:H:1,1997-07-01T02:00:00Z,27.8674,-96.5433,2.0,256.2948089,25.15621593,-99999.0,'11111222,11111222,99999999' 
TABS,ioos:station:TABS:H:1,1997-07-01T02:30:00Z,27.8674,-96.5433,2.0,261.242322,23.51412342,-99999.0,'11111222,11111222,99999999' 
TABS,ioos:station:TABS:H:1,1997-07-01T03:00:00Z,27.8674,-96.5433,2.0,275.4479427,18.85515845,-99999.0,'11111222,11111222,99999999' 
TABS,ioos:station:TABS:H:1,1997-07-01T03:30:00Z,27.8674,-96.5433,2.0,290.6795916,16.87737243,-99999.0,'11111222,11111222,99999999' 
TABS,ioos:station:TABS:H:1,1997-07-01T04:00:00Z,27.8674,-96.5433,2.0,312.1187387,16.87876773,-99999.0,'11111222,11111222,99999999' 
TABS,ioos:station:TABS:H:1,1997-07-01T04:30:00Z,27.8674,-96.5433,2.0,332.2739822,19.86036253,-99999.0,'11111222,11111222,99999999' 
TABS,ioos:station:TABS:H:1,1997-07-01T05:00:00Z,27.8674,-96.5433,2.0,346.8787108,22.33310099,-99999.0,'11111222,11111222,99999999' 
TABS,ioos:station:TABS:H:1,1997-07-01T05:30:00Z,27.8674,-96.5433,2.0,7.125210146,24.02552809,-99999.0,'11111222,11111222,99999999' 
TABS,ioos:station:TABS:H:1,1997-07-01T06:00:00Z,27.8674,-96.5433,2.0,6.850549266,30.01426994,-99999.0,'11111222,11111222,99999999' 
TABS,ioos:station:TABS:H:1,1997-07-01T06:30:00Z,27.8674,-96.5433,2.0,14.59577505,29.56407617,-99999.0,'11111222,11111222,99999999' 
TABS,ioos:station:TABS:H:1,1997-07-01T07:00:00Z,27.8674,-96.5433,2.0,11.2153625,36.7620198,-99999.0,'11111222,11111222,99999999' 
TABS,ioos:station:TABS:H:1,1997-07-01T07:30:00Z,27.8674,-96.5433,2.0,17.84846478,45.70995734,-99999.0,'11111222,11111222,99999999' 
TABS,ioos:station:TABS:H:1,1997-07-01T08:00:00Z,27.8674,-96.5433,2.0,21.17091563,45.38297588,-99999.0,'11111222,11111222,99999999' 
TABS,ioos:station:TABS:H:1,1997-07-01T08:30:00Z,27.8674,-96.5433,2.0,23.79528957,41.36639457,-99999.0,'11111222,11111222,99999999' 
TABS,ioos:station:TABS:H:1,1997-07-01T09:00:00Z,27.8674,-96.5433,2.0,27.69459413,40.38676144,-99999.0,'11111222,11111222,99999999' 
TABS,ioos:station:TABS:H:1,1997-07-01T09:30:00Z,27.8674,-96.5433,2.0,35.14005441,39.35193642,-99999.0,'11111222,11111222,99999999' 
TABS,ioos:station:TABS:H:1,1997-07-01T10:00:00Z,27.8674,-96.5433,2.0,39.68823682,38.7248357,-99999.0,'11111222,11111222,99999999' 
TABS,ioos:station:TABS:H:1,1997-07-01T10:30:00Z,27.8674,-96.5433,2.0,51.97897676,41.61039894,-99999.0,'11111222,11111222,99999999' 
TABS,ioos:station:TABS:H:1,1997-07-01T11:00:00Z,27.8674,-96.5433,2.0,58.52963125,40.5318455,-99999.0,'11111222,11111222,99999999' 
TABS,ioos:station:TABS:H:1,1997-07-01T11:30:00Z,27.8674,-96.5433,2.0,66.03451804,38.15975498,-99999.0,'11111222,11111222,99999999' 
TABS,ioos:station:TABS:H:1,1997-07-01T12:00:00Z,27.8674,-96.5433,2.0,69.17036187,36.02450555,-99999.0,'11111222,11111222,99999999' 
TABS,ioos:station:TABS:H:1,1997-07-01T12:30:00Z,27.8674,-96.5433,2.0,73.9129113,34.42815708,-99999.0,'11111222,11111222,99999999' 
TABS,ioos:station:TABS:H:1,1997-07-01T13:00:00Z,27.8674,-96.5433,2.0,80.37013489,32.04149965,-99999.0,'11111222,11111222,99999999' 
TABS,ioos:station:TABS:H:1,1997-07-01T13:30:00Z,27.8674,-96.5433,2.0,86.38209607,28.3665331,-99999.0,'11111222,11111222,99999999' 
TABS,ioos:station:TABS:H:1,1997-07-01T14:00:00Z,27.8674,-96.5433,2.0,93.69602695,27.76775468,-99999.0,'11111222,11111222,99999999' 
TABS,ioos:station:TABS:H:1,1997-07-01T14:30:00Z,27.8674,-96.5433,2.0,96.7894961,25.20677092,-99999.0,'11111222,11111222,99999999' 
TABS,ioos:station:TABS:H:1,1997-07-01T15:00:00Z,27.8674,-96.5433,2.0,101.309906,22.79261723,-99999.0,'11111222,11111222,99999999' 
TABS,ioos:station:TABS:H:1,1997-07-01T15:30:00Z,27.8674,-96.5433,2.0,109.4385101,21.48464801,-99999.0,'11111222,11111222,99999999' 
TABS,ioos:station:TABS:H:1,1997-07-01T16:00:00Z,27.8674,-96.5433,2.0,108.6805901,21.38668043,-99999.0,'11111222,11111222,99999999' 
TABS,ioos:station:TABS:H:1,1997-07-01T16:30:00Z,27.8674,-96.5433,2.0,108.1359746,18.18334403,-99999.0,'11111222,11111222,99999999' 
TABS,ioos:station:TABS:H:1,1997-07-01T17:00:00Z,27.8674,-96.5433,2.0,98.57582585,21.99592917,-99999.0,'11111222,11111222,99999999' 
TABS,ioos:station:TABS:H:1,1997-07-01T17:30:00Z,27.8674,-96.5433,2.0,99.22195326,22.33873094,-99999.0,'11111222,11111222,99999999' 
TABS,ioos:station:TABS:H:1,1997-07-01T18:00:00Z,27.8674,-96.5433,2.0,96.79636785,20.11132268,-99999.0,'11111222,11111222,99999999' 
TABS,ioos:station:TABS:H:1,1997-07-01T18:30:00Z,27.8674,-96.5433,2.0,102.3067034,23.78660337,-99999.0,'11111222,11111222,99999999' 
TABS,ioos:station:TABS:H:1,1997-07-01T19:00:00Z,27.8674,-96.5433,2.0,120.6800684,20.4411668,-99999.0,'11111222,11111222,99999999' 
TABS,ioos:station:TABS:H:1,1997-07-01T19:30:00Z,27.8674,-96.5433,2.0,133.0340979,18.34607587,-99999.0,'11111222,11111222,99999999' 
TABS,ioos:station:TABS:H:1,1997-07-01T20:00:00Z,27.8674,-96.5433,2.0,130.856887,14.58329524,-99999.0,'11111222,11111222,99999999' 
TABS,ioos:station:TABS:H:1,1997-07-01T20:30:00Z,27.8674,-96.5433,2.0,137.189401,16.65745479,-99999.0,'11111222,11111222,99999999' 
TABS,ioos:station:TABS:H:1,1997-07-01T21:00:00Z,27.8674,-96.5433,2.0,142.693171,15.74045743,-99999.0,'11111222,11111222,99999999' 
TABS,ioos:station:TABS:H:1,1997-07-01T21:30:00Z,27.8674,-96.5433,2.0,156.1163568,19.88252751,-99999.0,'11111222,11111222,99999999' 
TABS,ioos:station:TABS:H:1,1997-07-01T22:00:00Z,27.8674,-96.5433,2.0,166.1655931,19.94867915,-99999.0,'11111222,11111222,99999999' 
TABS,ioos:station:TABS:H:1,1997-07-01T22:30:00Z,27.8674,-96.5433,2.0,173.1007575,19.81346259,-99999.0,'11111222,11111222,99999999' 
TABS,ioos:station:TABS:H:1,1997-07-01T23:00:00Z,27.8674,-96.5433,2.0,190.0643342,18.76882522,-99999.0,'11111222,11111222,99999999' 
TABS,ioos:station:TABS:H:1,1997-07-01T23:30:00Z,27.8674,-96.5433,2.0,204.4436872,18.0037385,-99999.0,'11111222,11111222,99999999' 
TABS,ioos:station:TABS:H:1,1997-07-02T00:00:00Z,27.8674,-96.5433,2.0,206.0554244,15.59495431,-99999.0,'11111222,11111222,99999999' 
TABS,ioos:station:TABS:H:1,1997-07-02T00:30:00Z,27.8674,-96.5433,2.0,217.5012256,16.14698114,-99999.0,'11111222,11111222,99999999' 
TABS,ioos:station:TABS:H:1,1997-07-02T01:00:00Z,27.8674,-96.5433,2.0,220.613914,19.23305488,-99999.0,'11111222,11111222,99999999' 
TABS,ioos:station:TABS:H:1,1997-07-02T01:30:00Z,27.8674,-96.5433,2.0,239.5797855,15.89863516,-99999.0,'11111222,11111222,99999999' 
TABS,ioos:station:TABS:H:1,1997-07-02T02:00:00Z,27.8674,-96.5433,2.0,250.2143669,15.83475923,-99999.0,'11111222,11111222,99999999' 
TABS,ioos:station:TABS:H:1,1997-07-02T02:30:00Z,27.8674,-96.5433,2.0,268.7977488,14.30314651,-99999.0,'11111222,11111222,99999999' 
TABS,ioos:station:TABS:H:1,1997-07-02T03:00:00Z,27.8674,-96.5433,2.0,281.3226512,18.23487867,-99999.0,'11111222,11111222,99999999' 
TABS,ioos:station:TABS:H:1,1997-07-02T03:30:00Z,27.8674,-96.5433,2.0,284.0437007,19.65751256,-99999.0,'11111222,11111222,99999999' 
TABS,ioos:station:TABS:H:1,1997-07-02T04:00:00Z,27.8674,-96.5433,2.0,284.5582326,23.71126526,-99999.0,'11111222,11111222,99999999' 
TABS,ioos:station:TABS:H:1,1997-07-02T04:30:00Z,27.8674,-96.5433,2.0,296.8988435,23.05425123,-99999.0,'11111222,11111222,99999999' 
TABS,ioos:station:TABS:H:1,1997-07-02T05:00:00Z,27.8674,-96.5433,2.0,311.2506483,22.59801097,-99999.0,'11111222,11111222,99999999' 
TABS,ioos:station:TABS:H:1,1997-07-02T05:30:00Z,27.8674,-96.5433,2.0,324.5428531,21.58255777,-99999.0,'11111222,11111222,99999999' 
TABS,ioos:station:TABS:H:1,1997-07-02T06:00:00Z,27.8674,-96.5433,2.0,337.1142457,20.6994541,-99999.0,'11111222,11111222,99999999' 
TABS,ioos:station:TABS:H:1,1997-07-02T06:30:00Z,27.8674,-96.5433,2.0,350.7782572,22.33873094,-99999.0,'11111222,11111222,99999999' 
TABS,ioos:station:TABS:H:1,1997-07-02T07:00:00Z,27.8674,-96.5433,2.0,8.998095174,24.74450444,-99999.0,'11111222,11111222,99999999' 
TABS,ioos:station:TABS:H:1,1997-07-02T07:30:00Z,27.8674,-96.5433,2.0,22.31826613,25.12188687,-99999.0,'11111222,11111222,99999999' 
TABS,ioos:station:TABS:H:1,1997-07-02T08:00:00Z,27.8674,-96.5433,2.0,30.95682541,27.79992086,-99999.0,'11111222,11111222,99999999' 
TABS,ioos:station:TABS:H:1,1997-07-02T08:30:00Z,27.8674,-96.5433,2.0,33.84680331,29.42695533,-99999.0,'11111222,11111222,99999999' 
TABS,ioos:station:TABS:H:1,1997-07-02T09:00:00Z,27.8674,-96.5433,2.0,37.81726835,28.67191832,-99999.0,'11111222,11111222,99999999' 
TABS,ioos:station:TABS:H:1,1997-07-02T09:30:00Z,27.8674,-96.5433,2.0,41.02835665,30.42208737,-99999.0,'11111222,11111222,99999999' 
TABS,ioos:station:TABS:H:1,1997-07-02T10:00:00Z,27.8674,-96.5433,2.0,44.61557647,30.55477213,-99999.0,'11111222,11111222,99999999' 
TABS,ioos:station:TABS:H:1,1997-07-02T10:30:00Z,27.8674,-96.5433,2.0,55.30364562,28.2663351,-99999.0,'11111222,11111222,99999999' 
TABS,ioos:station:TABS:H:1,1997-07-02T11:00:00Z,27.8674,-96.5433,2.0,63.69485336,29.58348357,-99999.0,'11111222,11111222,99999999' 
TABS,ioos:station:TABS:H:1,1997-07-02T11:30:00Z,27.8674,-96.5433,2.0,68.65513471,35.19409752,-99999.0,'11111222,11111222,99999999' 
TABS,ioos:station:TABS:H:1,1997-07-02T12:00:00Z,27.8674,-96.5433,2.0,79.05239223,28.22363726,-99999.0,'11111222,11111222,99999999' 
TABS,ioos:station:TABS:H:1,1997-07-02T12:30:00Z,27.8674,-96.5433,2.0,83.07016565,22.21226913,-99999.0,'11111222,11111222,99999999' 
TABS,ioos:station:TABS:H:1,1997-07-02T13:00:00Z,27.8674,-96.5433,2.0,84.11027569,20.3675158,-99999.0,'11111222,11111222,99999999' 
TABS,ioos:station:TABS:H:1,1997-07-02T13:30:00Z,27.8674,-96.5433,2.0,74.05464139,21.69472747,-99999.0,'11111222,11111222,99999999' 
TABS,ioos:station:TABS:H:1,1997-07-02T14:00:00Z,27.8674,-96.5433,2.0,63.05807135,40.78676256,-99999.0,'11111222,11111222,99999999' 
TABS,ioos:station:TABS:H:1,1997-07-02T14:30:00Z,27.8674,-96.5433,2.0,55.7132032,39.67431033,-99999.0,'11111222,11111222,99999999' 
TABS,ioos:station:TABS:H:1,1997-07-02T15:00:00Z,27.8674,-96.5433,2.0,58.7976532,36.23110542,-99999.0,'11111222,11111222,99999999' 
TABS,ioos:station:TABS:H:1,1997-07-02T15:30:00Z,27.8674,-96.5433,2.0,62.9844647,34.12345235,-99999.0,'11111222,11111222,99999999' 
TABS,ioos:station:TABS:H:1,1997-07-02T16:00:00Z,27.8674,-96.5433,2.0,62.70365187,31.18227221,-99999.0,'11111222,11111222,99999999' 
TABS,ioos:station:TABS:H:1,1997-07-02T16:30:00Z,27.8674,-96.5433,2.0,61.81957014,28.39593281,-99999.0,'11111222,11111222,99999999' 
TABS,ioos:station:TABS:H:1,1997-07-02T17:00:00Z,27.8674,-96.5433,2.0,64.61044785,25.72466715,-99999.0,'11111222,11111222,99999999' 
TABS,ioos:station:TABS:H:1,1997-07-02T17:30:00Z,27.8674,-96.5433,2.0,69.54153529,21.3143942,-99999.0,'11111222,11111222,99999999' 
TABS,ioos:station:TABS:H:1,1997-07-02T18:00:00Z,27.8674,-96.5433,2.0,94.60964486,18.53997033,-99999.0,'11111222,11111222,99999999' 
TABS,ioos:station:TABS:H:1,1997-07-02T18:30:00Z,27.8674,-96.5433,2.0,165.9635789,24.57370953,-99999.0,'11111222,11111222,99999999' 
TABS,ioos:station:TABS:H:1,1997-07-02T19:00:00Z,27.8674,-96.5433,2.0,156.0430213,20.53943767,-99999.0,'11111222,11111222,99999999' 
TABS,ioos:station:TABS:H:1,1997-07-02T19:30:00Z,27.8674,-96.5433,2.0,158.5306549,19.53547798,-99999.0,'11111222,11111222,99999999' 
TABS,ioos:station:TABS:H:1,1997-07-02T20:00:00Z,27.8674,-96.5433,2.0,158.0416162,18.31891372,-99999.0,'11111222,11111222,99999999' 
TABS,ioos:station:TABS:H:1,1997-07-02T20:30:00Z,27.8674,-96.5433,2.0,156.8095402,18.15705373,-99999.0,'11111222,11111222,99999999' 
TABS,ioos:station:TABS:H:1,1997-07-02T21:00:00Z,27.8674,-96.5433,2.0,171.5857461,16.26506994,-99999.0,'11111222,11111222,99999999' 
TABS,ioos:station:TABS:H:1,1997-07-02T21:30:00Z,27.8674,-96.5433,2.0,182.4023934,14.31258188,-99999.0,'11111222,11111222,99999999' 
TABS,ioos:station:TABS:H:1,1997-07-02T22:00:00Z,27.8674,-96.5433,2.0,197.105076,16.21736415,-99999.0,'11111222,11111222,99999999' 
TABS,ioos:station:TABS:H:1,1997-07-02T22:30:00Z,27.8674,-96.5433,2.0,206.0670159,14.92855318,-99999.0,'11111222,11111222,99999999' 
TABS,ioos:station:TABS:H:1,1997-07-02T23:00:00Z,27.8674,-96.5433,2.0,206.0554244,15.59495431,-99999.0,'11111222,11111222,99999999' 
TABS,ioos:station:TABS:H:1,1997-07-02T23:30:00Z,27.8674,-96.5433,2.0,210.764594,16.30446871,-99999.0,'11111222,11111222,99999999' 
TABS,ioos:station:TABS:H:1,1997-07-03T00:00:00Z,27.8674,-96.5433,2.0,220.5972203,16.48888413,-99999.0,'11111222,11111222,99999999' 
TABS,ioos:station:TABS:H:1,1997-07-03T00:30:00Z,27.8674,-96.5433,2.0,236.3095903,16.1168142,-99999.0,'11111222,11111222,99999999' 
TABS,ioos:station:TABS:H:1,1997-07-03T01:00:00Z,27.8674,-96.5433,2.0,256.9037695,13.15205307,-99999.0,'11111222,11111222,99999999' 
TABS,ioos:station:TABS:H:1,1997-07-03T01:30:00Z,27.8674,-96.5433,2.0,272.9488067,17.30290438,-99999.0,'11111222,11111222,99999999' 
TABS,ioos:station:TABS:H:1,1997-07-03T02:00:00Z,27.8674,-96.5433,2.0,287.1031099,20.26619106,-99999.0,'11111222,11111222,99999999' 
TABS,ioos:station:TABS:H:1,1997-07-03T02:30:00Z,27.8674,-96.5433,2.0,294.6037248,19.33543121,-99999.0,'11111222,11111222,99999999' 
TABS,ioos:station:TABS:H:1,1997-07-03T03:00:00Z,27.8674,-96.5433,2.0,306.1455089,23.2438594,-99999.0,'11111222,11111222,99999999' 
TABS,ioos:station:TABS:H:1,1997-07-03T03:30:00Z,27.8674,-96.5433,2.0,309.0009818,24.15269964,-99999.0,'11111222,11111222,99999999' 
TABS,ioos:station:TABS:H:1,1997-07-03T04:00:00Z,27.8674,-96.5433,2.0,313.7555555,29.29527607,-99999.0,'11111222,11111222,99999999' 
TABS,ioos:station:TABS:H:1,1997-07-03T04:30:00Z,27.8674,-96.5433,2.0,325.0565034,30.16904539,-99999.0,'11111222,11111222,99999999' 
TABS,ioos:station:TABS:H:1,1997-07-03T05:00:00Z,27.8674,-96.5433,2.0,335.9164248,30.68078389,-99999.0,'11111222,11111222,99999999' 
TABS,ioos:station:TABS:H:1,1997-07-03T05:30:00Z,27.8674,-96.5433,2.0,340.9023182,32.79501487,-99999.0,'11111222,11111222,99999999' 
TABS,ioos:station:TABS:H:1,1997-07-03T06:00:00Z,27.8674,-96.5433,2.0,346.8147615,33.97571044,-99999.0,'11111222,11111222,99999999' 
TABS,ioos:station:TABS:H:1,1997-07-03T06:30:00Z,27.8674,-96.5433,2.0,356.6622129,30.74215672,-99999.0,'11111222,11111222,99999999' 
TABS,ioos:station:TABS:H:1,1997-07-03T07:00:00Z,27.8674,-96.5433,2.0,5.643846332,27.25209717,-99999.0,'11111222,11111222,99999999' 
TABS,ioos:station:TABS:H:1,1997-07-03T07:30:00Z,27.8674,-96.5433,2.0,16.38971247,26.40286727,-99999.0,'11111222,11111222,99999999' 
TABS,ioos:station:TABS:H:1,1997-07-03T08:00:00Z,27.8674,-96.5433,2.0,8.686851724,25.62393022,-99999.0,'11111222,11111222,99999999' 
TABS,ioos:station:TABS:H:1,1997-07-03T08:30:00Z,27.8674,-96.5433,2.0,13.47440404,21.75891771,-99999.0,'11111222,11111222,99999999' 
TABS,ioos:station:TABS:H:1,1997-07-03T09:00:00Z,27.8674,-96.5433,2.0,23.09627459,22.02537627,-99999.0,'11111222,11111222,99999999' 
TABS,ioos:station:TABS:H:1,1997-07-03T09:30:00Z,27.8674,-96.5433,2.0,20.78840754,18.48328975,-99999.0,'11111222,11111222,99999999' 
TABS,ioos:station:TABS:H:1,1997-07-03T10:00:00Z,27.8674,-96.5433,2.0,16.51301987,16.78216315,-99999.0,'11111222,11111222,99999999' 
TABS,ioos:station:TABS:H:1,1997-07-03T10:30:00Z,27.8674,-96.5433,2.0,16.05323139,20.46813377,-99999.0,'11111222,11111222,99999999' 
TABS,ioos:station:TABS:H:1,1997-07-03T11:00:00Z,27.8674,-96.5433,2.0,14.5379263,24.93846828,-99999.0,'11111222,11111222,99999999' 
TABS,ioos:station:TABS:H:1,1997-07-03T11:30:00Z,27.8674,-96.5433,2.0,24.13871665,28.4145966,-99999.0,'11111222,11111222,99999999' 
TABS,ioos:station:TABS:H:1,1997-07-03T12:00:00Z,27.8674,-96.5433,2.0,37.46611696,40.17817442,-99999.0,'11111222,11111222,99999999' 
TABS,ioos:station:TABS:H:1,1997-07-03T12:30:00Z,27.8674,-96.5433,2.0,52.06751085,47.98825377,-99999.0,'11111222,11111222,99999999' 
TABS,ioos:station:TABS:H:1,1997-07-03T13:00:00Z,27.8674,-96.5433,2.0,69.08654564,50.08990417,-99999.0,'11111222,11111222,99999999' 
TABS,ioos:station:TABS:H:1,1997-07-03T13:30:00Z,27.8674,-96.5433,2.0,80.05045909,46.59071367,-99999.0,'11111222,11111222,99999999' 
TABS,ioos:station:TABS:H:1,1997-07-03T14:00:00Z,27.8674,-96.5433,2.0,86.91085085,44.16417553,-99999.0,'11111222,11111222,99999999' 
TABS,ioos:station:TABS:H:1,1997-07-03T14:30:00Z,27.8674,-96.5433,2.0,87.00378855,39.98465956,-99999.0,'11111222,11111222,99999999' 
TABS,ioos:station:TABS:H:1,1997-07-03T15:00:00Z,27.8674,-96.5433,2.0,88.65300582,37.86046223,-99999.0,'11111222,11111222,99999999' 
TABS,ioos:station:TABS:H:1,1997-07-03T15:30:00Z,27.8674,-96.5433,2.0,93.65579952,37.32595478,-99999.0,'11111222,11111222,99999999' 
TABS,ioos:station:TABS:H:1,1997-07-03T16:00:00Z,27.8674,-96.5433,2.0,94.76363055,35.88395184,-99999.0,'11111222,11111222,99999999' 
TABS,ioos:station:TABS:H:1,1997-07-03T16:30:00Z,27.8674,-96.5433,2.0,98.27929679,33.1252366,-99999.0,'11111222,11111222,99999999' 
TABS,ioos:station:TABS:H:1,1997-07-03T17:00:00Z,27.8674,-96.5433,2.0,99.99935474,30.86890993,-99999.0,'11111222,11111222,99999999' 
TABS,ioos:station:TABS:H:1,1997-07-03T17:30:00Z,27.8674,-96.5433,2.0,100.0969753,30.57351141,-99999.0,'11111222,11111222,99999999' 
TABS,ioos:station:TABS:H:1,1997-07-03T18:00:00Z,27.8674,-96.5433,2.0,104.3273803,27.68094832,-99999.0,'11111222,11111222,99999999' 
TABS,ioos:station:TABS:H:1,1997-07-03T18:30:00Z,27.8674,-96.5433,2.0,106.6947953,24.8891161,-99999.0,'11111222,11111222,99999999' 
TABS,ioos:station:TABS:H:1,1997-07-03T19:00:00Z,27.8674,-96.5433,2.0,109.6537781,22.15044243,-99999.0,'11111222,11111222,99999999' 
TABS,ioos:station:TABS:H:1,1997-07-03T19:30:00Z,27.8674,-96.5433,2.0,112.8859648,20.6994541,-99999.0,'11111222,11111222,99999999' 
TABS,ioos:station:TABS:H:1,1997-07-03T20:00:00Z,27.8674,-96.5433,2.0,114.0761673,15.34495683,-99999.0,'11111222,11111222,99999999' 
TABS,ioos:station:TABS:H:1,1997-07-03T20:30:00Z,27.8674,-96.5433,2.0,112.5331974,13.23001512,-99999.0,'11111222,11111222,99999999' 
TABS,ioos:station:TABS:H:1,1997-07-03T21:00:00Z,27.8674,-96.5433,2.0,106.1590477,11.78561835,-99999.0,'11111222,11111222,99999999' 
TABS,ioos:station:TABS:H:1,1997-07-03T21:30:00Z,27.8674,-96.5433,2.0,104.0236458,11.05962477,-99999.0,'11111222,11111222,99999999' 
TABS,ioos:station:TABS:H:1,1997-07-03T22:00:00Z,27.8674,-96.5433,2.0,95.68519684,8.984191672,-99999.0,'11133222,11111222,99999999' 
TABS,ioos:station:TABS:H:1,1997-07-03T22:30:00Z,27.8674,-96.5433,2.0,95.50176391,9.282763597,-99999.0,'11133222,11111222,99999999' 
TABS,ioos:station:TABS:H:1,1997-07-03T23:00:00Z,27.8674,-96.5433,2.0,96.30892759,8.099049327,-99999.0,'11133222,11111222,99999999' 
TABS,ioos:station:TABS:H:1,1997-07-03T23:30:00Z,27.8674,-96.5433,2.0,86.96596745,5.667944954,-99999.0,'11133222,11111222,99999999' 
TABS,ioos:station:TABS:H:1,1997-07-04T00:00:00Z,27.8674,-96.5433,2.0,77.04867191,3.97102002,-99999.0,'11133222,11111222,99999999' 
TABS,ioos:station:TABS:H:1,1997-07-04T00:30:00Z,27.8674,-96.5433,2.0,57.49498758,3.889280139,-99999.0,'11133222,11111222,99999999' 
TABS,ioos:station:TABS:H:1,1997-07-04T01:00:00Z,27.8674,-96.5433,2.0,31.59111518,4.543269748,-99999.0,'11133222,11111222,99999999' 
TABS,ioos:station:TABS:H:1,1997-07-04T01:30:00Z,27.8674,-96.5433,2.0,52.05117509,3.398602654,-99999.0,'11133222,11111222,99999999' 
TABS,ioos:station:TABS:H:1,1997-07-04T02:00:00Z,27.8674,-96.5433,2.0,54.44941015,5.125358524,-99999.0,'11133222,11111222,99999999' 
TABS,ioos:station:TABS:H:1,1997-07-04T02:30:00Z,27.8674,-96.5433,2.0,26.56519952,4.00256168,-99999.0,'11133222,11111222,99999999' 
TABS,ioos:station:TABS:H:1,1997-07-04T03:00:00Z,27.8674,-96.5433,2.0,12.04801408,4.263918386,-99999.0,'11133222,11111222,99999999' 
TABS,ioos:station:TABS:H:1,1997-07-04T03:30:00Z,27.8674,-96.5433,2.0,5.748860433,5.990125207,-99999.0,'11133222,11111222,99999999' 
TABS,ioos:station:TABS:H:1,1997-07-04T04:00:00Z,27.8674,-96.5433,2.0,356.7078288,10.44724366,-99999.0,'11111222,11111222,99999999' 
TABS,ioos:station:TABS:H:1,1997-07-04T04:30:00Z,27.8674,-96.5433,2.0,357.1020519,17.60251402,-99999.0,'11111222,11111222,99999999' 
TABS,ioos:station:TABS:H:1,1997-07-04T05:00:00Z,27.8674,-96.5433,2.0,357.2429726,18.50141886,-99999.0,'11111222,11111222,99999999' 
TABS,ioos:station:TABS:H:1,1997-07-04T05:30:00Z,27.8674,-96.5433,2.0,4.835541753,21.23557628,-99999.0,'11111222,11111222,99999999' 
TABS,ioos:station:TABS:H:1,1997-07-04T06:00:00Z,27.8674,-96.5433,2.0,8.789350224,25.32741203,-99999.0,'11111222,11111222,99999999' 
TABS,ioos:station:TABS:H:1,1997-07-04T06:30:00Z,27.8674,-96.5433,2.0,20.82593975,29.33668863,-99999.0,'11111222,11111222,99999999' 
TABS,ioos:station:TABS:H:1,1997-07-04T07:00:00Z,27.8674,-96.5433,2.0,20.55418145,33.09689562,-99999.0,'11111222,11111222,99999999' 
TABS,ioos:station:TABS:H:1,1997-07-04T07:30:00Z,27.8674,-96.5433,2.0,22.62255095,34.86230773,-99999.0,'11111222,11111222,99999999' 
TABS,ioos:station:TABS:H:1,1997-07-04T08:00:00Z,27.8674,-96.5433,2.0,28.20492054,37.19656973,-99999.0,'11111222,11111222,99999999' 
TABS,ioos:station:TABS:H:1,1997-07-04T08:30:00Z,27.8674,-96.5433,2.0,32.05555586,37.6267591,-99999.0,'11111222,11111222,99999999' 
TABS,ioos:station:TABS:H:1,1997-07-04T09:00:00Z,27.8674,-96.5433,2.0,38.53220446,39.2325082,-99999.0,'11111222,11111222,99999999' 
TABS,ioos:station:TABS:H:1,1997-07-04T09:30:00Z,27.8674,-96.5433,2.0,44.39296816,40.03863384,-99999.0,'11111222,11111222,99999999' 
TABS,ioos:station:TABS:H:1,1997-07-04T10:00:00Z,27.8674,-96.5433,2.0,49.12585764,40.98405178,-99999.0,'11111222,11111222,99999999' 
TABS,ioos:station:TABS:H:1,1997-07-04T10:30:00Z,27.8674,-96.5433,2.0,51.21124305,40.91294416,-99999.0,'11111222,11111222,99999999' 
TABS,ioos:station:TABS:H:1,1997-07-04T11:00:00Z,27.8674,-96.5433,2.0,54.32895778,42.92339455,-99999.0,'11111222,11111222,99999999' 
TABS,ioos:station:TABS:H:1,1997-07-04T11:30:00Z,27.8674,-96.5433,2.0,56.98071528,42.64827312,-99999.0,'11111222,11111222,99999999' 
TABS,ioos:station:TABS:H:1,1997-07-04T12:00:00Z,27.8674,-96.5433,2.0,65.59177004,42.54226134,-99999.0,'11111222,11111222,99999999' 
TABS,ioos:station:TABS:H:1,1997-07-04T12:30:00Z,27.8674,-96.5433,2.0,69.15193611,40.18074788,-99999.0,'11111222,11111222,99999999' 
TABS,ioos:station:TABS:H:1,1997-07-04T13:00:00Z,27.8674,-96.5433,2.0,71.03047624,40.33028267,-99999.0,'11111222,11111222,99999999' 
TABS,ioos:station:TABS:H:1,1997-07-04T13:30:00Z,27.8674,-96.5433,2.0,74.40368812,39.90947882,-99999.0,'11111222,11111222,99999999' 
TABS,ioos:station:TABS:H:1,1997-07-04T14:00:00Z,27.8674,-96.5433,2.0,74.10739619,40.27962885,-99999.0,'11111222,11111222,99999999' 
TABS,ioos:station:TABS:H:1,1997-07-04T14:30:00Z,27.8674,-96.5433,2.0,80.23133632,36.89494816,-99999.0,'11111222,11111222,99999999' 
TABS,ioos:station:TABS:H:1,1997-07-04T15:00:00Z,27.8674,-96.5433,2.0,81.26126663,35.2795479,-99999.0,'11111222,11111222,99999999' 
TABS,ioos:station:TABS:H:1,1997-07-04T15:30:00Z,27.8674,-96.5433,2.0,84.85243678,33.2139549,-99999.0,'11111222,11111222,99999999' 
TABS,ioos:station:TABS:H:1,1997-07-04T16:00:00Z,27.8674,-96.5433,2.0,85.73185001,31.97868822,-99999.0,'11111222,11111222,99999999' 
TABS,ioos:station:TABS:H:1,1997-07-04T16:30:00Z,27.8674,-96.5433,2.0,97.86077196,26.17596799,-99999.0,'11111222,11111222,99999999' 
TABS,ioos:station:TABS:H:1,1997-07-04T17:00:00Z,27.8674,-96.5433,2.0,92.19312469,23.25703549,-99999.0,'11111222,11111222,99999999' 
TABS,ioos:station:TABS:H:1,1997-07-04T17:30:00Z,27.8674,-96.5433,2.0,100.5685441,22.73568561,-99999.0,'11111222,11111222,99999999' 
TABS,ioos:station:TABS:H:1,1997-07-04T18:00:00Z,27.8674,-96.5433,2.0,117.8421604,17.85720303,-99999.0,'11111222,11111222,99999999' 